Weather in Buldak

Russia / Kurgan Oblast     55°02′15″N   66°07′13″E
temp.,
°C
wind,
m/s
gust,
m/s
humid.,
%
clouds,
%
prec.,
mm/h
press.,
hPa
HPBL,
m
23 september, thu
thu2323:00+6n2677100 0.1 1025199
02:00+4n349080 0.1 102573
05:00+2nne339457 0.1 102764
08:00+3n34856 0.0 1028188
11:00+8n346028 0.0 10281118
14:00+9n4451100 0.1 10281319
17:00+9n4551100 0.1 10291309
20:00+7nne355850 0.0 1029177
24 september, fri
fri2423:00+4nne11735 0.0 103010
02:00+3wnw11765 0.0 103110
05:00+2w11805 0.0 103110
08:00+4sw12705 0.0 103183
11:00+10wsw34475 0.0 1031942
14:00+13wsw343979 0.0 10291362
17:00+12wsw3440100 0.0 1029742
20:00+8ssw2252100 0.0 102818
25 september, sat
sat2523:00+6ssw335795 0.0 102924
02:00+5sw346096 0.0 102849
05:00+4sw336239 0.0 102832
08:00+7ssw235567 0.0 102793
11:00+12ssw22385 0.0 1026668
14:00+15sse22325 0.0 10241104
17:00+15ese23345 0.0 1023427
20:00+10e45480 0.0 102369
26 september, sun
sun2623:00+7e48555 0.0 1023143
02:00+6e511735 0.0 1024290
05:00+4e61372100 0.0 1024351
08:00+4e7146882 0.0 1024455
11:00+8ese81148100 0.0 1024832
14:00+10ese81029100 0.0 10241152
17:00+9e81232100 0.0 10231179
20:00+7e91438100 0.0 1023993
27 september, mon
mon2723:00+6e91546100 0.0 1023982
02:00+4e101656100 0.0 1021877
05:00+3e101859100 0.0 1021825
08:00+2e111960100 0.0 1020875
11:00+6e121847100 0.0 10201118
14:00+8e12153897 0.0 10191548
17:00+7e914435 0.0 10191631
20:00+4ene814535 0.0 10201198